HAWK-A

Last updated on Tue Sep 22 2026 00:03:52 GMT+0000 (Coordinated Universal Time)

1 43765U 18099H 26264.13505436 .00003865 00000+0 15235-3 0 9999 2 43765 97.3815 315.1363 0032522 308.8573 50.9764 15.25707909427728
UTC large
Height (km)
Speed (km/s)
/
Latitude / Longitude
Inclination (degrees)
Orbital Period (minutes)
Azimuth
Elevation
Range (km)
Doppler Factor

Next 0 passes for location: London (51.5072 / 0.1276)

No passes found over London.
HAWK-A